CZ-6A DEB

Satellite information

Favourite Embed

Satellite Type and Status

DEBRISIN ORBIT

Key statistics

Satellite CZ-6A DEB at a glance.

Uptime

969

Days in orbit

Revolutions

≈ 14.2

Per day

Orbit

SSO

Sun Synchronous Orbit

Inclination

98.8

Latest

Satellite identification and parameters

Extended collection of information and parameters for CZ-6A DEB.

Object identification

Identified? True

Debris? True

Object name: CZ-6A DEB

International designator: 2022-151MN

Object number (NORAD): 54586

Object ID (CCSDS): 54586

Country: PEOPLES REPUBLIC OF CHINA (PRC)

Current information (Y/N): Y

RCS size: SMALL

Orbital parameters

Period: 101.119 minutes

Inclination: 98.7747 deg

SMA: 7189.789 km

Apoapsis: 855.826 km

Periapsis: 767.483 km

RAAN: 203.4735 deg

Eccentricy: 0.0061436

Argument of periapsis: 259.1904 deg

Mean anomaly: 100.2356 deg

Mean motion: 14.24060706 rev/day

Mean motion (dot): 0.00000883 rev/day2

B* drag term: 0.00039605 1/REarth

Two-line elements (TLE)

Creation date: July 6, 2025, 10:56 p.m.

Reference frame: TEME

Reference center: EARTH

Epoch: July 6, 2025, 1:59 p.m. UTC

TLE line 0: 0 CZ-6A DEB

TLE line 1: 1 54586U 22151MN 25187.58313520 .00000883 00000-0 39605-3 0 9994

TLE line 2: 2 54586 98.7747 203.4735 0061436 259.1904 100.2356 14.24060706136700

Live tracking on map

Real-time ground track for satellite CZ-6A DEB.

In-orbit conjunctions

A list of the most updated potential collisions computed for object CZ-6A DEB.

Target Orbit TCA Probability of collision Miss distance Type
CZ-6A DEB LEO 2025-02-18 16:27:25 0.0001227185 96.0 (m) DEBRIS
FENGYUN 1C DEB SSO 2024-11-11 04:27:45 0.0001074872 581.0 (m) DEBRIS

Associated space launch

Chinese satellite reported for atmospheric/ocean/environmental/spatial parameter research purposes, details TBD.

CZ-6A DEB was lifted into orbit during the mission ‘Long March 6A | Yunhai 3’, on board a Long March 6A space rocket.

The launch took place on Nov. 11, 2022, 10:52 p.m. from Launch Complex 9A.

For more information about the launch, click the button.

Launch to space Long March 6A | Yunhai 3
Long March 6A | Yunhai 3

Agency: N/A

Status: Launch Successful

Launch date: Nov. 11, 2022, 10:52 p.m. UTC

Rocket: Long March 6A

Launch pad: Launch Complex 9A

Location: Taiyuan Satellite Launch Center, People's Republic of China

...

Latest news about this satellite

There are no fresh news available about this satellite. Check back as we update our databases every day.


Newsletter sign-up

Weekly statistics, charts and insights to help you stay on top of the space industry.